Regional Weather Roundup
Issued by NWS Goodland, KS

Home | Current Version | Previous Version | Graphics & Text | Print | Product List | Glossary On
Versions: 1 2 3 4 5 6 7 8 9 10 11 12 13 14 15 16 17 18 19 20 21 22 23 24 25 26 27 28 29 30 31 32 33 34 35 36 37 38 39 40 41 42 43 44 45 46 47 48 49 50
000
ASUS43 KGLD 260559
RWRGLD

GOODLAND FORECAST AREA HOURLY WEATHER ROUNDUP
NATIONAL WEATHER SERVICE GOODLAND KS
1200 AM MDT MON SEP 26 2016

...OFFICIAL OBSERVATIONS...

CITY           SKY/WX    TMP DP  RH WIND       PRES   REMARKS
GOODLAND KS    CLEAR     44  35  70 W5        30.40R
HILL CITY KS   CLEAR     44  35  70 W3        30.35R
IMPERIAL NEB   CLEAR     46  34  62 CALM      30.39S
MCCOOK NEB     CLEAR     42  34  73 NW6       30.36R
AKRON CO       CLEAR     46  32  58 S6        30.43S
BURLINGTON CO  CLEAR     43  36  76 W6        30.42S
LIMON CO       CLEAR     37  25  61 CALM      30.48R
$$

...UNOFFICIAL OBSERVATIONS...

CITY           SKY/WX    TMP DP  RH WIND       PRES   REMARKS
LENORA KS        N/A     50  32  50 MISG        N/A
SHARON SPRINGS   N/A     45  34  65 CALM        N/A
KIT CARSON CO    N/A     44  35  70 CALM        N/A
$$



USA.gov is the U.S. government's official web portal to all federal, state and local government web resources and services.